VJT402 EGGW-LEAL

Flight info

Callsign VJT402
Flight time 2h 12m
Altitude 39000
Route RODNI N27 ICTAM Q63 CPT N859 VAPID UN859 BENAR/N0459F330 UN859 SOPIL DCT BALAN DCT LMG/N0463F390 DCT PIMQO DCT AGN DCT ANETO DCT POSSY DCT XIMPE DCT RIMES N860 VLC
Aircraft CL60/M-SADE3FGHIJ3J4J7P2RWXY/HB1D1

Departure

Time 2026-05-06 15:40
Airport London Luton Airport (EGGW)

Arrival

Time 2026-05-06 17:52
Airport Alicante-Elche Miguel Hernández Airport (LEAL)
Time Latitude Longitude Altitude Speed Heading
2026-05-06 15:13 51.87714 -0.37812 528 ft 0 kts 206°
2026-05-06 15:33 51.87711 -0.37820 528 ft 2 kts 263°
2026-05-06 15:33 51.87734 -0.37814 528 ft 4 kts 39°
2026-05-06 15:33 51.87759 -0.37760 528 ft 7 kts 101°
2026-05-06 15:33 51.87725 -0.37635 527 ft 16 kts 114°
2026-05-06 15:34 51.87657 -0.37472 527 ft 19 kts 154°
2026-05-06 15:34 51.87528 -0.37484 529 ft 20 kts 223°
2026-05-06 15:34 51.87478 -0.37707 529 ft 22 kts 255°
2026-05-06 15:34 51.87429 -0.37977 521 ft 28 kts 245°
2026-05-06 15:35 51.87365 -0.38066 517 ft 1 kts 204°
2026-05-06 15:35 51.87357 -0.38072 516 ft 0 kts 204°
2026-05-06 15:39 51.87356 -0.38072 516 ft 1 kts 203°
2026-05-06 15:39 51.87283 -0.38110 513 ft 18 kts 174°
2026-05-06 15:39 51.87259 -0.38031 517 ft 7 kts 73°
2026-05-06 15:40 51.87331 -0.37609 530 ft 86 kts 73°
2026-05-06 15:40 51.87576 -0.36198 608 ft 162 kts 71°
2026-05-06 15:40 51.87893 -0.34284 1258 ft 187 kts 72°
2026-05-06 15:40 51.88223 -0.32229 2233 ft 200 kts 73°
2026-05-06 15:41 51.88573 -0.30051 3360 ft 209 kts 71°
2026-05-06 15:41 51.88984 -0.27805 4438 ft 217 kts 71°
2026-05-06 15:41 51.89310 -0.25351 4896 ft 225 kts 90°
2026-05-06 15:41 51.88798 -0.23019 4998 ft 226 kts 129°
2026-05-06 15:42 51.87465 -0.21765 5004 ft 222 kts 168°
2026-05-06 15:42 51.85932 -0.21895 5010 ft 222 kts 200°
2026-05-06 15:42 51.84599 -0.23369 5410 ft 247 kts 235°
2026-05-06 15:42 51.83888 -0.25770 6541 ft 245 kts 255°
2026-05-06 15:43 51.83487 -0.28527 7339 ft 259 kts 259°
2026-05-06 15:43 51.83105 -0.31297 8679 ft 258 kts 259°
2026-05-06 15:43 51.82711 -0.34125 9534 ft 263 kts 259°
2026-05-06 15:43 51.82307 -0.37004 9909 ft 262 kts 259°
2026-05-06 15:44 51.81903 -0.39864 10001 ft 259 kts 259°
2026-05-06 15:44 51.81503 -0.42696 9988 ft 255 kts 259°
2026-05-06 15:44 51.81098 -0.45485 9992 ft 254 kts 259°
2026-05-06 15:44 51.80680 -0.48250 9999 ft 254 kts 259°
2026-05-06 15:45 51.80258 -0.51042 9992 ft 254 kts 258°
2026-05-06 15:45 51.79841 -0.53789 9991 ft 251 kts 259°
2026-05-06 15:45 51.79425 -0.56526 9996 ft 251 kts 258°
2026-05-06 15:45 51.79009 -0.59260 9993 ft 251 kts 259°
2026-05-06 15:46 51.78591 -0.61998 10001 ft 251 kts 259°
2026-05-06 15:46 51.78157 -0.64853 10414 ft 275 kts 259°
2026-05-06 15:46 51.77710 -0.67761 11885 ft 266 kts 258°
2026-05-06 15:46 51.77277 -0.70576 13218 ft 262 kts 258°
2026-05-06 15:47 51.76844 -0.73391 14354 ft 264 kts 258°
2026-05-06 15:47 51.76400 -0.76274 15412 ft 267 kts 258°
2026-05-06 15:47 51.75777 -0.79080 16334 ft 275 kts 241°
2026-05-06 15:47 51.74526 -0.81520 16855 ft 288 kts 227°
2026-05-06 15:48 51.73089 -0.83819 16986 ft 286 kts 227°
2026-05-06 15:48 51.71690 -0.86063 16996 ft 282 kts 227°
2026-05-06 15:48 51.70284 -0.88314 16999 ft 280 kts 227°
2026-05-06 15:48 51.68887 -0.90547 16992 ft 279 kts 227°
2026-05-06 15:49 51.67516 -0.92739 16994 ft 279 kts 227°
2026-05-06 15:49 51.66089 -0.95024 17182 ft 299 kts 227°
2026-05-06 15:49 51.64592 -0.97418 17985 ft 307 kts 227°
2026-05-06 15:49 51.63078 -0.99836 18854 ft 311 kts 227°
2026-05-06 15:50 51.61551 -1.02274 19723 ft 314 kts 227°
2026-05-06 15:50 51.59986 -1.04769 20592 ft 317 kts 226°
2026-05-06 15:50 51.58429 -1.07251 21402 ft 320 kts 227°
2026-05-06 15:50 51.56840 -1.09782 22171 ft 323 kts 227°
2026-05-06 15:51 51.55227 -1.12347 22907 ft 327 kts 227°
2026-05-06 15:51 51.53595 -1.14943 23619 ft 331 kts 227°
2026-05-06 15:51 51.51939 -1.17546 24336 ft 335 kts 224°
2026-05-06 15:51 51.49963 -1.19560 25024 ft 342 kts 202°
2026-05-06 15:52 51.47612 -1.20173 25655 ft 350 kts 178°
2026-05-06 15:52 51.45235 -1.19132 26230 ft 359 kts 158°
2026-05-06 15:52 51.42940 -1.17422 26778 ft 364 kts 157°
2026-05-06 15:52 51.40648 -1.15726 27369 ft 366 kts 157°
2026-05-06 15:53 51.38306 -1.13999 27943 ft 369 kts 157°
2026-05-06 15:53 51.35986 -1.12291 28462 ft 372 kts 157°
2026-05-06 15:53 51.33618 -1.10550 28970 ft 376 kts 157°
2026-05-06 15:53 51.31217 -1.08788 29473 ft 379 kts 157°
2026-05-06 15:54 51.28786 -1.07006 29944 ft 382 kts 157°
2026-05-06 15:54 51.26349 -1.05222 30379 ft 386 kts 157°
2026-05-06 15:54 51.23903 -1.03435 30841 ft 388 kts 157°
2026-05-06 15:54 51.21423 -1.01623 31292 ft 390 kts 157°
2026-05-06 15:55 51.18932 -0.99807 31722 ft 392 kts 157°
2026-05-06 15:55 51.16466 -0.98011 32101 ft 394 kts 157°
2026-05-06 15:55 51.13923 -0.96162 32475 ft 397 kts 157°
2026-05-06 15:55 51.11418 -0.94343 32832 ft 399 kts 157°
2026-05-06 15:56 51.08883 -0.92504 33168 ft 401 kts 156°
2026-05-06 15:56 51.06328 -0.90653 33487 ft 404 kts 156°
2026-05-06 15:56 51.03737 -0.88778 33800 ft 406 kts 156°
2026-05-06 15:56 51.01230 -0.86966 34198 ft 405 kts 156°
2026-05-06 15:57 50.98640 -0.85096 34654 ft 403 kts 156°
2026-05-06 15:57 50.96106 -0.83270 35047 ft 401 kts 156°
2026-05-06 15:57 50.93548 -0.81428 35272 ft 400 kts 156°
2026-05-06 15:57 50.90994 -0.79591 35454 ft 401 kts 156°
2026-05-06 15:58 50.88443 -0.77759 35803 ft 402 kts 156°
2026-05-06 15:58 50.85909 -0.75917 35807 ft 402 kts 154°
2026-05-06 15:58 50.83507 -0.73693 35980 ft 403 kts 148°
2026-05-06 15:58 50.81115 -0.71232 36147 ft 403 kts 148°
2026-05-06 15:59 50.78769 -0.68832 36328 ft 403 kts 148°
2026-05-06 15:59 50.76418 -0.66433 36552 ft 403 kts 148°
2026-05-06 15:59 50.74048 -0.64016 36792 ft 402 kts 148°
2026-05-06 15:59 50.71680 -0.61607 37017 ft 402 kts 148°
2026-05-06 16:00 50.69324 -0.59215 37234 ft 402 kts 148°
2026-05-06 16:00 50.66988 -0.56844 37429 ft 402 kts 148°
2026-05-06 16:00 50.64606 -0.54432 37631 ft 402 kts 148°
2026-05-06 16:00 50.62248 -0.52047 37817 ft 403 kts 148°
2026-05-06 16:01 50.59873 -0.49648 37994 ft 403 kts 148°
2026-05-06 16:01 50.57495 -0.47249 38181 ft 403 kts 148°
2026-05-06 16:01 50.55140 -0.44878 38366 ft 402 kts 148°
2026-05-06 16:01 50.52758 -0.42481 38530 ft 402 kts 148°
2026-05-06 16:02 50.50391 -0.40103 38698 ft 402 kts 148°
2026-05-06 16:02 50.47998 -0.37702 38862 ft 402 kts 148°
2026-05-06 16:02 50.45606 -0.35305 38974 ft 404 kts 148°
2026-05-06 16:02 50.43242 -0.32940 38958 ft 407 kts 149°
2026-05-06 16:03 50.38452 -0.28157 38974 ft 414 kts 149°
2026-05-06 16:03 50.33534 -0.23257 38970 ft 422 kts 149°
2026-05-06 16:04 50.28486 -0.18241 38970 ft 430 kts 149°
2026-05-06 16:04 50.23356 -0.13157 38968 ft 437 kts 149°
2026-05-06 16:05 50.18146 -0.08006 38966 ft 443 kts 149°
2026-05-06 16:05 50.12864 -0.02809 38971 ft 448 kts 150°
2026-05-06 16:06 50.07153 0.01114 38964 ft 450 kts 165°
2026-05-06 16:06 50.00989 0.03567 38962 ft 454 kts 167°
2026-05-06 16:07 49.94812 0.06000 38974 ft 457 kts 167°
2026-05-06 16:07 49.88605 0.08438 38969 ft 460 kts 167°
2026-05-06 16:08 49.82348 0.10889 38971 ft 462 kts 167°
2026-05-06 16:08 49.76046 0.13351 38960 ft 463 kts 167°
2026-05-06 16:09 49.69722 0.15814 38984 ft 465 kts 167°
2026-05-06 16:09 49.63452 0.18319 38996 ft 467 kts 166°
2026-05-06 16:10 49.57129 0.20868 38991 ft 469 kts 166°
2026-05-06 16:10 49.50830 0.23401 38995 ft 470 kts 166°
2026-05-06 16:11 49.44451 0.25958 38976 ft 472 kts 166°
2026-05-06 16:11 49.38078 0.28505 38963 ft 474 kts 166°
2026-05-06 16:12 49.31629 0.31076 38957 ft 476 kts 166°
2026-05-06 16:12 49.25208 0.33764 38973 ft 477 kts 165°
2026-05-06 16:13 49.18739 0.36493 38942 ft 479 kts 165°
2026-05-06 16:13 49.12243 0.39225 38937 ft 481 kts 165°
2026-05-06 16:14 49.05770 0.41939 38925 ft 482 kts 165°
2026-05-06 16:14 48.99256 0.44662 38944 ft 483 kts 165°
2026-05-06 16:15 48.92731 0.47382 38928 ft 485 kts 165°
2026-05-06 16:15 48.86190 0.50101 38933 ft 485 kts 165°
2026-05-06 16:16 48.79673 0.52803 38924 ft 486 kts 165°
2026-05-06 16:16 48.73118 0.55402 38933 ft 486 kts 166°
2026-05-06 16:17 48.66531 0.57982 38908 ft 486 kts 166°
2026-05-06 16:17 48.60023 0.60524 38944 ft 486 kts 166°
2026-05-06 16:18 48.53414 0.63099 38931 ft 485 kts 166°
2026-05-06 16:18 48.46884 0.65728 38929 ft 486 kts 166°
2026-05-06 16:19 48.40333 0.68393 38906 ft 486 kts 166°
2026-05-06 16:19 48.33763 0.71057 38925 ft 486 kts 166°
2026-05-06 16:20 48.27214 0.73706 38933 ft 486 kts 166°
2026-05-06 16:20 48.20685 0.76302 38923 ft 486 kts 166°
2026-05-06 16:21 48.14133 0.78880 38927 ft 486 kts 166°
2026-05-06 16:21 48.07554 0.81462 38916 ft 485 kts 166°
2026-05-06 16:22 48.00936 0.84052 38927 ft 486 kts 166°
2026-05-06 16:22 47.94376 0.86613 38927 ft 485 kts 166°
2026-05-06 16:23 47.87785 0.89179 38931 ft 486 kts 166°
2026-05-06 16:23 47.81214 0.91731 38928 ft 486 kts 166°
2026-05-06 16:24 47.74621 0.94284 38919 ft 486 kts 166°
2026-05-06 16:24 47.68090 0.96806 38925 ft 486 kts 166°
2026-05-06 16:25 47.61459 0.99361 38914 ft 486 kts 167°
2026-05-06 16:25 47.54910 1.01878 38925 ft 486 kts 166°
2026-05-06 16:26 47.48365 1.04386 38942 ft 486 kts 166°
2026-05-06 16:26 47.41752 1.06279 38927 ft 484 kts 177°
2026-05-06 16:27 47.35162 1.06272 38950 ft 483 kts 182°
2026-05-06 16:27 47.28383 1.06117 38926 ft 483 kts 182°
2026-05-06 16:28 47.21632 1.05962 38921 ft 484 kts 182°
2026-05-06 16:28 47.14856 1.05807 38921 ft 484 kts 182°
2026-05-06 16:29 47.08094 1.05651 38911 ft 484 kts 182°
2026-05-06 16:29 47.01342 1.05480 38930 ft 484 kts 183°
2026-05-06 16:30 46.95691 1.05238 38935 ft 484 kts 183°
2026-05-06 16:30 46.87769 1.04897 38908 ft 484 kts 183°
2026-05-06 16:31 46.81050 1.04610 38918 ft 484 kts 183°
2026-05-06 16:31 46.74292 1.04321 38909 ft 484 kts 183°
2026-05-06 16:32 46.67660 1.04039 38900 ft 484 kts 183°
2026-05-06 16:32 46.60910 1.03753 38911 ft 484 kts 183°
2026-05-06 16:33 46.54194 1.03469 38918 ft 484 kts 183°
2026-05-06 16:34 46.44036 1.03258 38910 ft 484 kts 182°
2026-05-06 16:34 46.37259 1.03186 38911 ft 484 kts 182°
2026-05-06 16:35 46.30506 1.03113 38916 ft 483 kts 182°
2026-05-06 16:35 46.23730 1.03040 38910 ft 484 kts 182°
2026-05-06 16:36 46.16988 1.02966 38912 ft 484 kts 182°
2026-05-06 16:36 46.10236 1.02892 38900 ft 484 kts 182°
2026-05-06 16:37 46.03423 1.02818 38905 ft 483 kts 182°
2026-05-06 16:37 45.96639 1.02743 38905 ft 482 kts 182°
2026-05-06 16:38 45.89868 1.02669 38925 ft 483 kts 182°
2026-05-06 16:38 45.83129 1.02615 38919 ft 484 kts 180°
2026-05-06 16:39 45.76425 1.03882 38913 ft 486 kts 171°
2026-05-06 16:39 45.69781 1.05603 38892 ft 486 kts 171°
2026-05-06 16:40 45.63207 1.07296 38899 ft 485 kts 172°
2026-05-06 16:40 45.56559 1.09002 38887 ft 485 kts 172°
2026-05-06 16:41 45.49902 1.10705 38902 ft 485 kts 172°
2026-05-06 16:41 45.43195 1.12417 38904 ft 486 kts 172°
2026-05-06 16:42 45.36530 1.14113 38897 ft 485 kts 172°
2026-05-06 16:42 45.29895 1.15797 38904 ft 485 kts 172°
2026-05-06 16:43 45.23215 1.17488 38884 ft 485 kts 172°
2026-05-06 16:43 45.16517 1.18691 38900 ft 481 kts 181°
2026-05-06 16:44 45.09916 1.17783 38900 ft 477 kts 192°
2026-05-06 16:44 45.03342 1.16090 38902 ft 477 kts 192°
2026-05-06 16:45 44.96795 1.14414 38882 ft 476 kts 192°
2026-05-06 16:45 44.90248 1.12741 38890 ft 476 kts 192°
2026-05-06 16:46 44.83716 1.11075 38906 ft 476 kts 192°
2026-05-06 16:46 44.77168 1.09409 38905 ft 476 kts 192°
2026-05-06 16:47 44.70619 1.07746 38921 ft 476 kts 192°
2026-05-06 16:47 44.64059 1.06084 38914 ft 476 kts 192°
2026-05-06 16:48 44.57530 1.04434 38916 ft 476 kts 192°
2026-05-06 16:48 44.50999 1.02787 38913 ft 476 kts 192°
2026-05-06 16:49 44.44466 1.01143 38920 ft 475 kts 192°
2026-05-06 16:49 44.37979 0.99514 38914 ft 475 kts 192°
2026-05-06 16:50 44.31460 0.97881 38922 ft 475 kts 193°
2026-05-06 16:50 44.24936 0.96251 38922 ft 475 kts 193°
2026-05-06 16:51 44.18430 0.94628 38932 ft 475 kts 193°
2026-05-06 16:51 44.11932 0.93011 38925 ft 475 kts 193°
2026-05-06 16:52 44.05461 0.91404 38923 ft 474 kts 193°
2026-05-06 16:52 43.98923 0.89785 38928 ft 474 kts 193°
2026-05-06 16:53 43.92459 0.88187 38932 ft 474 kts 193°
2026-05-06 16:53 43.85963 0.86536 38928 ft 473 kts 194°
2026-05-06 16:54 43.79492 0.84797 38936 ft 473 kts 194°
2026-05-06 16:54 43.73009 0.83061 38944 ft 473 kts 194°
2026-05-06 16:55 43.66592 0.81347 38959 ft 473 kts 194°
2026-05-06 16:55 43.60135 0.79627 38955 ft 472 kts 194°
2026-05-06 16:56 43.53701 0.77916 38948 ft 472 kts 194°
2026-05-06 16:56 43.47247 0.76205 38949 ft 472 kts 194°
2026-05-06 16:57 43.40824 0.74505 38965 ft 471 kts 194°
2026-05-06 16:57 43.34398 0.72809 38958 ft 470 kts 194°
2026-05-06 16:58 43.27975 0.71117 38966 ft 470 kts 194°
2026-05-06 16:58 43.21518 0.69420 38962 ft 470 kts 194°
2026-05-06 16:59 43.15349 0.67802 38967 ft 470 kts 194°
2026-05-06 16:59 43.09044 0.66152 38975 ft 468 kts 194°
2026-05-06 17:00 43.02641 0.64480 38963 ft 468 kts 194°
2026-05-06 17:00 42.96242 0.62812 38971 ft 469 kts 194°
2026-05-06 17:01 42.89858 0.61152 38957 ft 469 kts 195°
2026-05-06 17:01 42.83426 0.59484 38928 ft 469 kts 194°
2026-05-06 17:02 42.77036 0.57829 38946 ft 470 kts 195°
2026-05-06 17:02 42.70645 0.56091 38940 ft 466 kts 199°
2026-05-06 17:03 42.64708 0.52901 38938 ft 459 kts 208°
2026-05-06 17:03 42.58939 0.49196 38956 ft 459 kts 209°
2026-05-06 17:04 42.53115 0.45469 38944 ft 459 kts 209°
2026-05-06 17:04 42.47337 0.41780 38929 ft 459 kts 209°
2026-05-06 17:05 42.41546 0.38091 38947 ft 460 kts 209°
2026-05-06 17:05 42.35733 0.34397 38923 ft 460 kts 208°
2026-05-06 17:06 42.29911 0.30704 38913 ft 460 kts 208°
2026-05-06 17:06 42.24091 0.27021 38925 ft 459 kts 208°
2026-05-06 17:07 42.18286 0.23355 38919 ft 459 kts 208°
2026-05-06 17:07 42.12454 0.19678 38906 ft 459 kts 208°
2026-05-06 17:08 42.06506 0.16329 38926 ft 462 kts 201°
2026-05-06 17:08 42.00055 0.14791 38891 ft 469 kts 191°
2026-05-06 17:09 41.93512 0.13811 38887 ft 469 kts 191°
2026-05-06 17:09 41.86968 0.12830 38898 ft 469 kts 191°
2026-05-06 17:10 41.80438 0.11853 38890 ft 470 kts 191°
2026-05-06 17:10 41.73910 0.10879 38901 ft 468 kts 191°
2026-05-06 17:11 41.67397 0.09909 38903 ft 468 kts 191°
2026-05-06 17:11 41.60887 0.08941 38904 ft 467 kts 191°
2026-05-06 17:12 41.54382 0.07977 38898 ft 466 kts 191°
2026-05-06 17:12 41.47892 0.07016 38909 ft 467 kts 191°
2026-05-06 17:13 41.41381 0.06054 38911 ft 467 kts 191°
2026-05-06 17:13 41.34924 0.05103 38896 ft 466 kts 191°
2026-05-06 17:14 41.28461 0.04152 38909 ft 467 kts 191°
2026-05-06 17:14 41.22044 0.03211 38920 ft 465 kts 191°
2026-05-06 17:15 41.15804 0.02296 38916 ft 465 kts 191°
2026-05-06 17:15 41.09561 0.01384 38929 ft 464 kts 191°
2026-05-06 17:16 41.03286 0.00468 38919 ft 463 kts 191°
2026-05-06 17:16 40.97112 -0.00431 38924 ft 464 kts 191°
2026-05-06 17:17 40.91112 -0.01304 38919 ft 465 kts 191°
2026-05-06 17:17 40.84368 -0.02282 38911 ft 463 kts 191°
2026-05-06 17:18 40.78165 -0.03180 38924 ft 463 kts 191°
2026-05-06 17:18 40.71949 -0.04078 38954 ft 462 kts 191°
2026-05-06 17:19 40.65565 -0.05000 38923 ft 464 kts 191°
2026-05-06 17:19 40.59239 -0.05910 38949 ft 462 kts 191°
2026-05-06 17:20 40.53015 -0.07482 38936 ft 454 kts 202°
2026-05-06 17:20 40.46941 -0.09904 38938 ft 454 kts 201°
2026-05-06 17:21 40.40995 -0.12260 38933 ft 452 kts 202°
2026-05-06 17:21 40.35046 -0.14614 38946 ft 452 kts 201°
2026-05-06 17:22 40.29155 -0.16939 38932 ft 451 kts 201°
2026-05-06 17:22 40.23093 -0.19327 38939 ft 450 kts 201°
2026-05-06 17:23 40.17182 -0.21652 38946 ft 451 kts 201°
2026-05-06 17:23 40.11226 -0.23988 38927 ft 450 kts 201°
2026-05-06 17:24 40.05376 -0.26279 38919 ft 451 kts 201°
2026-05-06 17:24 39.99383 -0.28621 38938 ft 450 kts 201°
2026-05-06 17:25 39.93344 -0.30978 38575 ft 456 kts 201°
2026-05-06 17:25 39.90334 -0.32150 38046 ft 452 kts 202°
2026-05-06 17:25 39.87349 -0.33308 37418 ft 444 kts 202°
2026-05-06 17:25 39.84489 -0.34415 36904 ft 428 kts 202°
2026-05-06 17:26 39.81818 -0.35447 36389 ft 415 kts 202°
2026-05-06 17:26 39.79060 -0.36516 35908 ft 410 kts 202°
2026-05-06 17:26 39.76418 -0.37542 35284 ft 407 kts 203°
2026-05-06 17:26 39.73787 -0.38560 34786 ft 397 kts 203°
2026-05-06 17:27 39.71175 -0.39570 34205 ft 391 kts 203°
2026-05-06 17:27 39.68634 -0.40552 33768 ft 387 kts 203°
2026-05-06 17:27 39.66099 -0.41534 33242 ft 385 kts 203°
2026-05-06 17:27 39.63559 -0.42516 32771 ft 381 kts 203°
2026-05-06 17:28 39.61077 -0.43475 32248 ft 379 kts 203°
2026-05-06 17:28 39.58620 -0.44424 31768 ft 376 kts 203°
2026-05-06 17:28 39.56142 -0.45380 31276 ft 373 kts 203°
2026-05-06 17:28 39.53663 -0.46336 30775 ft 372 kts 203°
2026-05-06 17:29 39.51230 -0.47272 30296 ft 368 kts 202°
2026-05-06 17:29 39.48788 -0.48212 29811 ft 367 kts 202°
2026-05-06 17:29 39.46379 -0.49091 29347 ft 366 kts 202°
2026-05-06 17:29 39.43920 -0.49968 28867 ft 364 kts 201°
2026-05-06 17:30 39.41491 -0.50835 28397 ft 363 kts 201°
2026-05-06 17:30 39.39041 -0.51709 27911 ft 362 kts 201°
2026-05-06 17:30 39.36617 -0.52573 27404 ft 359 kts 201°
2026-05-06 17:30 39.34192 -0.53436 26932 ft 357 kts 201°
2026-05-06 17:31 39.31764 -0.54300 26465 ft 357 kts 201°
2026-05-06 17:31 39.29367 -0.55153 25985 ft 354 kts 200°
2026-05-06 17:31 39.26966 -0.56006 25493 ft 353 kts 201°
2026-05-06 17:31 39.24589 -0.56850 25024 ft 352 kts 200°
2026-05-06 17:32 39.22265 -0.57675 24547 ft 350 kts 200°
2026-05-06 17:32 39.19927 -0.58504 24095 ft 349 kts 200°
2026-05-06 17:32 39.17559 -0.59344 23614 ft 347 kts 200°
2026-05-06 17:32 39.15228 -0.60170 23174 ft 347 kts 200°
2026-05-06 17:33 39.12881 -0.61001 22692 ft 346 kts 199°
2026-05-06 17:33 39.10533 -0.61831 22228 ft 344 kts 200°
2026-05-06 17:33 39.08233 -0.62644 21775 ft 343 kts 199°
2026-05-06 17:33 39.05951 -0.63451 21321 ft 341 kts 199°
2026-05-06 17:34 39.03641 -0.64266 20863 ft 339 kts 199°
2026-05-06 17:34 39.01356 -0.65072 20411 ft 337 kts 199°
2026-05-06 17:34 38.99109 -0.65864 19968 ft 335 kts 199°
2026-05-06 17:34 38.96819 -0.66671 19521 ft 333 kts 199°
2026-05-06 17:35 38.94595 -0.67454 19076 ft 331 kts 198°
2026-05-06 17:35 38.92331 -0.68250 18631 ft 330 kts 198°
2026-05-06 17:35 38.90121 -0.69027 18202 ft 328 kts 198°
2026-05-06 17:36 38.85723 -0.70573 17332 ft 326 kts 198°
2026-05-06 17:36 38.83531 -0.71342 16898 ft 324 kts 198°
2026-05-06 17:36 38.81330 -0.72114 16467 ft 323 kts 198°
2026-05-06 17:36 38.79140 -0.72882 16030 ft 321 kts 198°
2026-05-06 17:37 38.76963 -0.73644 15601 ft 320 kts 198°
2026-05-06 17:37 38.74808 -0.74398 15074 ft 317 kts 198°
2026-05-06 17:37 38.72705 -0.75133 14457 ft 311 kts 198°
2026-05-06 17:37 38.70617 -0.75862 13827 ft 307 kts 198°
2026-05-06 17:38 38.68560 -0.76580 13188 ft 303 kts 198°
2026-05-06 17:38 38.66474 -0.77308 12543 ft 299 kts 198°
2026-05-06 17:38 38.64469 -0.78008 11925 ft 296 kts 197°
2026-05-06 17:38 38.62478 -0.78702 11291 ft 294 kts 197°
2026-05-06 17:39 38.60503 -0.79391 10666 ft 292 kts 197°
2026-05-06 17:39 38.58535 -0.80077 10033 ft 290 kts 197°
2026-05-06 17:39 38.56597 -0.80752 9411 ft 287 kts 197°
2026-05-06 17:39 38.54695 -0.81564 8768 ft 284 kts 209°
2026-05-06 17:40 38.53179 -0.83098 8177 ft 278 kts 229°
2026-05-06 17:40 38.51916 -0.84996 7541 ft 277 kts 229°
2026-05-06 17:40 38.50599 -0.86804 6873 ft 276 kts 225°
2026-05-06 17:40 38.49210 -0.88495 6300 ft 272 kts 221°
2026-05-06 17:41 38.47772 -0.90053 6016 ft 256 kts 217°
2026-05-06 17:41 38.46431 -0.91354 6008 ft 233 kts 214°
2026-05-06 17:41 38.45134 -0.92490 6043 ft 212 kts 212°
2026-05-06 17:41 38.43916 -0.93459 6050 ft 204 kts 210°
2026-05-06 17:42 38.42688 -0.94347 6012 ft 200 kts 207°
2026-05-06 17:42 38.41452 -0.95147 5913 ft 191 kts 204°
2026-05-06 17:42 38.40255 -0.95854 5524 ft 189 kts 202°
2026-05-06 17:42 38.39018 -0.96506 5465 ft 193 kts 200°
2026-05-06 17:43 38.37706 -0.97046 5472 ft 194 kts 188°
2026-05-06 17:43 38.36357 -0.97049 5475 ft 192 kts 167°
2026-05-06 17:43 38.35110 -0.96454 5476 ft 190 kts 147°
2026-05-06 17:43 38.34128 -0.95362 5486 ft 187 kts 127°
2026-05-06 17:44 38.33509 -0.93894 5481 ft 186 kts 106°
2026-05-06 17:44 38.33237 -0.92287 5452 ft 186 kts 98°
2026-05-06 17:44 38.33016 -0.90656 5171 ft 186 kts 98°
2026-05-06 17:44 38.32794 -0.89033 4949 ft 184 kts 99°
2026-05-06 17:45 38.32572 -0.87406 4661 ft 182 kts 99°
2026-05-06 17:45 38.32355 -0.85817 4432 ft 181 kts 98°
2026-05-06 17:45 38.32140 -0.84241 4191 ft 179 kts 99°
2026-05-06 17:45 38.31931 -0.82719 3979 ft 161 kts 98°
2026-05-06 17:46 38.31750 -0.81416 3768 ft 137 kts 98°
2026-05-06 17:46 38.31595 -0.80285 3592 ft 123 kts 98°
2026-05-06 17:46 38.31449 -0.79212 3406 ft 120 kts 98°
2026-05-06 17:46 38.31307 -0.78172 3264 ft 119 kts 98°
2026-05-06 17:47 38.31164 -0.77126 3113 ft 118 kts 98°
2026-05-06 17:47 38.31021 -0.76087 2966 ft 117 kts 98°
2026-05-06 17:47 38.30879 -0.75050 2808 ft 117 kts 98°
2026-05-06 17:47 38.30739 -0.74033 2666 ft 117 kts 98°
2026-05-06 17:48 38.30598 -0.73009 2507 ft 117 kts 98°
2026-05-06 17:48 38.30456 -0.71981 2360 ft 116 kts 98°
2026-05-06 17:48 38.30318 -0.70973 2205 ft 115 kts 98°
2026-05-06 17:48 38.30177 -0.69955 2056 ft 115 kts 98°
2026-05-06 17:49 38.30039 -0.68955 1905 ft 114 kts 98°
2026-05-06 17:49 38.29901 -0.67960 1754 ft 114 kts 98°
2026-05-06 17:49 38.29761 -0.66946 1571 ft 113 kts 97°
2026-05-06 17:49 38.29623 -0.65950 1447 ft 113 kts 97°
2026-05-06 17:50 38.29486 -0.64957 1309 ft 113 kts 97°
2026-05-06 17:50 38.29348 -0.63962 1161 ft 114 kts 98°
2026-05-06 17:50 38.29210 -0.62963 1044 ft 115 kts 98°
2026-05-06 17:50 38.29067 -0.61939 989 ft 115 kts 97°
2026-05-06 17:51 38.28936 -0.60951 825 ft 116 kts 97°
2026-05-06 17:51 38.28793 -0.59904 640 ft 116 kts 98°
2026-05-06 17:51 38.28656 -0.58906 422 ft 112 kts 98°
2026-05-06 17:51 38.28516 -0.57954 258 ft 110 kts 98°
2026-05-06 17:52 38.28382 -0.56998 141 ft 104 kts 98°
2026-05-06 17:52 38.28276 -0.56230 102 ft 61 kts 99°
2026-05-06 17:52 38.28227 -0.55870 95 ft 33 kts 99°
2026-05-06 17:52 38.28231 -0.55575 92 ft 33 kts 66°
2026-05-06 17:53 38.28300 -0.55396 88 ft 9 kts 25°
2026-05-06 17:53 38.28348 -0.55478 93 ft 15 kts 278°
2026-05-06 17:53 38.28367 -0.55618 97 ft 17 kts 280°
2026-05-06 17:53 38.28392 -0.55781 98 ft 20 kts 281°
2026-05-06 17:54 38.28420 -0.55973 101 ft 23 kts 278°
2026-05-06 17:54 38.28439 -0.56130 102 ft 18 kts 279°
2026-05-06 17:54 38.28462 -0.56294 108 ft 19 kts 281°
2026-05-06 17:54 38.28476 -0.56389 111 ft 10 kts 280°
2026-05-06 17:55 38.28494 -0.56511 114 ft 16 kts 278°
2026-05-06 17:55 38.28514 -0.56619 118 ft 4 kts
2026-05-06 17:55 38.28574 -0.56606 119 ft 10 kts
2026-05-06 17:55 38.28652 -0.56597 121 ft 10 kts 345°
2026-05-06 17:56 38.28675 -0.56625 122 ft 2 kts 279°
2026-05-06 17:56 38.28680 -0.56661 123 ft 5 kts 280°
2026-05-06 17:56 38.28682 -0.56671 123 ft 0 kts 279°
2026-05-06 18:15 38.28675 -0.56683 124 ft 16 kts 204°
2026-05-06 18:16 38.28628 -0.56656 122 ft 0 kts 96°
2026-05-06 18:16 38.28629 -0.56656 122 ft 0 kts 96°